Regional Weather Roundup
Issued by NWS Glasgow, MT

Home | Current Version | Previous Version | Text Only | Print | Product List | Glossary On
Versions: 1 2 3 4 5 6 7 8 9 10 11 12 13 14 15 16 17 18 19 20 21 22 23 24 25 26 27 28 29 30 31 32 33 34 35 36 37 38 39 40 41 42 43 44 45 46 47 48 49 50
813
ASUS45 KGGW 130515
RWRGGW
HOURLY REGIONAL WEATHER ROUNDUP FOR NORTHEAST MONTANA
NATIONAL WEATHER SERVICE GLASGOW MONTANA
1000 PM MST FRI FEB 12 2016

NOTE: "FAIR" INDICATES FEW OR NO CLOUDS BELOW 12,000 FEET WITH NO
SIGNIFICANT WEATHER AND/OR OBSTRUCTIONS TO VISISBILITY.

NORTHEAST MONTANA


CITY           SKY/WX    TMP DP  RH WIND       PRES   REMARKS
GLASGOW        CLOUDY    18  13  80 E22       30.13F
PLENTYWOOD       N/A     11   9  92 SE10        N/A  WCI  -3
WOLF POINT     LGT SNOW  18  13  80 E14       30.24F
JORDAN           N/A     27  24  89 E10       30.08F
WINNETT          N/A     36  30  80 CALM        N/A
SIDNEY         CLOUDY    16   9  73 SE12      30.31F
GLENDIVE       CLOUDY    21  16  79 E8        30.24F
MALTA            N/A     23  22  96 E6          N/A
SCOBEY           N/A     12   1  62 SE14G23   30.18F HAZE    WCI  -3

FORT PECK REPORTS


CITY           SKY/WX    TMP DP  RH WIND       PRES   REMARKS
FORT PECK        N/A     20  19  96 E21         N/A
THE PINES        N/A     25  22  88 E5          N/A

SOUTHEAST MONTANA


CITY           SKY/WX    TMP DP  RH WIND       PRES   REMARKS
BILLINGS       CLOUDY    34  30  85 CALM      30.05F
MILES CITY     CLOUDY    30  25  81 SE15      30.13F
BAKER          CLOUDY    20  14  77 SE18      30.21F
LIVINGSTON     CLOUDY    50  18  28 SW23G33   30.04F

CENTRAL MONTANA


CITY           SKY/WX    TMP DP  RH WIND       PRES   REMARKS
HAVRE          CLOUDY    23  22  96 E7        30.01F
LEWISTOWN      CLOUDY    43  32  65 SW12      30.00F
GREAT FALLS    CLOUDY    44  32  62 SW13      29.97F
CUT BANK       PTCLDY    44  34  67 SW10      29.94F
HELENA         PTCLDY    36  32  85 CALM      30.04F
BUTTE          CLOUDY    33  29  85 CALM      30.09F
BOZEMAN        CLOUDY    31  29  92 NW3       30.07F

WESTERN MONTANA


CITY           SKY/WX    TMP DP  RH WIND       PRES   REMARKS
MISSOULA       CLOUDY    37  35  92 VRB3      30.07F
KALISPELL      NOT AVBL

NORTH DAKOTA


CITY           SKY/WX    TMP DP  RH WIND       PRES   REMARKS
WILLISTON      LGT SNOW  11   5  77 SE10      30.35F WCI  -3
DICKINSON      CLOUDY    10   4  76 SE17      30.31S WCI  -8
MINOT          CLOUDY     5  -6  60 SE8       30.49F
BISMARCK       CLOUDY     3  -5  69 E8        30.52F

SOUTHERN SASKATCHEWAN


CITY           SKY/WX    TMP DP  RH WIND       PRES   REMARKS
REGINA         CLOUDY     7   0  72 SE23      30.32F WCI -14
ESTEVAN        NOT AVBL
SWIFT CURRENT  FLURRIES  16  12  86 SE22G32   30.03F WCI  -2





USA.gov is the U.S. government's official web portal to all federal, state and local government web resources and services.